World > North America > United States > Pennsylvania

Clarion, Pennsylvania Regional Weather

Lat: 41.21N, Lon: 79.38W
Wx Zone: PAZ015Web Search
Clarion Weather Warning NWS WEATHER ALERT FOR THE CLARION, PA AREA - HARD FROST ADVISORY Issued: 1121 AM EDT Sat May 8 2021 Clarion Weather Warning  

Helpful Tip: You can add this page to Bookmarks by pressing the Ctrl key & d key at the same time. Mac users press command & d.

Feedback


°F Click to change Clarion hourly weather to Imperial units.Click to change Clarion hourly weather to Metric units. °C
Clarion Weather Map
UTC Time: 5/8/2021, 16:27
Your Time:

Clarion, PA Regional Weather

Expires:202105081700;;793270
ASUS41 KCTP 081610
RWRCTP

REGIONAL WEATHER ROUNDUP
NATIONAL WEATHER SERVICE STATE COLLEGE PA
1200 PM EDT SAT MAY 08 2021

Note: "fair" indicates few or no clouds below 12,000 feet with no 
significant weather and/or obstructions to visibility.

* = STATION THAT DOES NOT REPORT PRECIPITATION /E.G. RAIN...SNOW...ETC/
    THUNDER OR FOG.


PAZ002>004-007>009-013>016-020>023-029>032-081700-
WESTERN PENNSYLVANIA
  
CITY           SKY/WX    TMP DP  RH WIND       PRES   REMARKS
ERIE           CLOUDY    44  38  79 W7        30.01R                  
MEADVILLE      CLOUDY    39  37  92 W10       30.00R                  
FRANKLIN       LGT RAIN  40  38  93 W8        30.00R                  
NEW CASTLE     CLOUDY    44  35  70 NW10      30.04R                  
BEAVER COUNTY  CLOUDY    45  34  67 NW9G22    30.03                   
BUTLER         CLOUDY    46  34  62 W9        30.01R                  
PITTSBURGH INT PTSUNNY   46  33  60 NW17G26   30.01R                  
PITTSBURGH     CLOUDY    47  33  58 W16G30    30.00R                  
INDIANA*       CLOUDY    45  37  76 NW12G18   30.01R                  
LATROBE        LGT RAIN  48  37  66 NW16      29.97S                  
WASHINGTON CO* CLOUDY    48  33  56 W13G22    30.05R                  
$$


SKY/WX - Weather  TMP - Temperature  DP - Dew Point  RH - Relative Humidity
WIND - Wind Direction/Speed PRES - Barometric Pressure VSB - Visibility
WCI - Wind Chill Index E13G22 Wind - East Wind 13 mph/Gusts of 22 mph